Location: Asbacherhof
(48.8543°N, 10.7903°E)
Time: 22:28:08
(UTC+00:00)

Cosmos 1674 - Pass Details

Date: 26 May 2022
Orbit: 488 x 509 km, 82.5° (Epoch: 29 June)

Event Time Altitude Azimuth Distance (km) Brightness Sun altitude
Exits shadow 00:12:21 28° 260° (W) 977 3.8 -18.8°
Maximum altitude 00:13:13 31° 287° (WNW) 903 3.9 -18.8°
Drops below altitude 10° 00:16:37 10° 351° (N) 1,724 6.3 -18.7°
Sets 00:18:56 0° 2° (N) 2,618 7.8 -18.6°
